Location: The Saddle
(36.8333°N, 80.3417°W)
Time: 10:26:34
(UTC-04:00)

Courier 1B Rocket - All Passes

Search period start: 13 April 2026 00:00
Search period end: 23 April 2026 00:00
Orbit: 920 x 1201 km, 28.2° (Epoch: 13 April)

Date Brightness Start Highest point End Pass type
(mag) Time Alt. Az. Time Alt. Az. Time Alt. Az.
13 Apr - 01:45:37 10° WSW 01:51:15 33° SSW 01:56:44 10° SE night (unlit)
13 Apr - 03:40:03 10° WSW 03:43:50 17° SSW 03:47:36 10° SSE night (unlit)
13 Apr - 20:59:12 10° SSW 21:04:28 22° SSE 21:09:30 10° ESE visible
13 Apr - 22:51:08 10° WSW 22:57:19 37° S 23:03:10 10° ESE visible
14 Apr - 00:44:15 10° WSW 00:50:13 37° S 00:55:56 10° ESE night (unlit)
14 Apr - 02:38:10 10° WSW 02:42:54 22° SSW 02:47:33 10° SSE night (unlit)
14 Apr - 19:58:50 10° SSW 20:03:22 18° SSE 20:07:43 10° ESE daylight
14 Apr - 21:50:01 10° SW 21:56:13 33° SSE 22:02:02 10° ESE visible
14 Apr - 23:42:55 10° WSW 23:49:08 40° S 23:55:02 10° ESE visible
15 Apr - 01:36:33 10° WSW 01:41:56 28° SSW 01:47:09 10° SE night (unlit)
15 Apr - 03:32:34 10° SW 03:34:25 11° SSW 03:36:15 10° S night (unlit)
15 Apr - 18:59:14 10° S 19:02:15 13° SSE 19:05:14 10° SE daylight
15 Apr - 20:49:00 10° SW 20:55:04 29° SSE 21:00:47 10° ESE visible
15 Apr - 22:41:35 10° WSW 22:48:01 40° S 22:54:04 10° ESE visible
16 Apr - 00:35:02 10° WSW 00:40:55 34° SSW 00:46:31 10° SE night (unlit)
16 Apr - 02:29:38 10° WSW 02:33:30 17° SSW 02:37:18 10° SSE night (unlit)
16 Apr - 19:48:13 10° SSW 19:53:54 24° SSE 19:59:20 10° ESE daylight
16 Apr - 21:40:18 10° WSW 21:46:52 38° S 21:53:01 10° ESE visible
16 Apr - 23:33:34 10° WSW 23:39:51 38° S 23:45:45 10° ESE visible
17 Apr - 01:27:38 10° WSW 01:32:34 23° SSW 01:37:19 10° SSE night (unlit)
17 Apr - 18:47:46 10° SSW 18:52:45 19° SSE 18:57:34 10° ESE daylight
17 Apr - 20:39:06 10° SW 20:45:40 35° SSE 20:51:51 10° ESE visible
17 Apr - 22:32:08 10° WSW 22:38:43 41° S 22:44:52 10° ESE visible
18 Apr - 00:25:54 10° WSW 00:31:34 29° SSW 00:36:58 10° SE visible
18 Apr - 02:22:02 10° SW 02:24:02 11° SSW 02:26:01 10° S night (unlit)
18 Apr - 17:48:00 10° S 17:51:37 14° SSE 17:55:08 10° SE daylight
18 Apr - 19:38:03 10° SW 19:44:28 30° SSE 19:50:33 10° ESE daylight
18 Apr - 21:30:44 10° WSW 21:37:31 42° S 21:43:52 10° ESE visible
18 Apr - 23:24:17 10° WSW 23:30:31 35° SSW 23:36:21 10° SE visible
19 Apr - 01:19:01 10° WSW 01:23:07 17° SSW 01:27:05 10° SSE night (unlit)
19 Apr - 18:37:14 10° SSW 18:43:15 25° SSE 18:49:03 10° ESE daylight
19 Apr - 20:29:23 10° WSW 20:36:17 40° S 20:42:47 10° ESE visible
19 Apr - 22:22:45 10° WSW 22:29:23 39° S 22:35:35 10° ESE visible
20 Apr - 00:16:54 10° WSW 00:22:10 23° SSW 00:27:09 10° SSE visible
20 Apr - 17:36:46 10° SSW 17:42:03 20° SSE 17:47:13 10° ESE daylight
20 Apr - 19:28:10 10° SW 19:35:01 36° SSE 19:41:33 10° ESE daylight
20 Apr - 21:21:15 10° WSW 21:28:10 42° S 21:34:39 10° ESE visible
20 Apr - 23:15:05 10° WSW 23:21:07 30° SSW 23:26:47 10° SE visible
21 Apr - 01:11:13 10° SW 01:13:38 12° SSW 01:15:59 10° S night (unlit)
21 Apr - 16:36:57 10° S 16:40:53 15° SSE 16:44:46 10° ESE daylight
21 Apr - 18:27:06 10° SW 18:33:46 32° SSE 18:40:11 10° ESE daylight
21 Apr - 20:19:48 10° WSW 20:26:54 43° S 20:33:36 10° ESE visible
21 Apr - 22:13:26 10° WSW 22:19:59 36° SSW 22:26:10 10° SE visible
22 Apr - 00:08:13 10° WSW 00:12:41 18° SSW 00:16:58 10° SSE visible
22 Apr - 17:26:17 10° SSW 17:32:31 26° SSE 17:38:36 10° ESE daylight
22 Apr - 19:18:28 10° WSW 19:25:37 41° S 19:32:26 10° ESE daylight
22 Apr - 21:11:50 10° WSW 21:18:48 41° S 21:25:20 10° ESE visible
22 Apr - 23:06:04 10° WSW 23:11:40 24° SSW 23:16:58 10° SSE visible
